Photometre #44[NE_1.6] Rome_La_Sapienza AOT

File : 20220826_44.hum

26/08/2022,05:18:14,TEMP=23.8,BA=5.68,STAT.A=6.5,ExtBa=13.36
26/08/2022,05:21:41,TEMP=24.1,BA=5.52,STAT.A=6.5,ExtBa=13.27
26/08/2022,05:25:42,TEMP=24.2,BA=5.52,STAT.A=6.5,ExtBa=13.17
26/08/2022,05:30:28,TEMP=24.4,BA=5.64,STAT.A=6.5,ExtBa=13.14
26/08/2022,05:36:11,TEMP=24.5,BA=5.64,STAT.A=6.5,ExtBa=13.23
26/08/2022,05:43:12,TEMP=24.8,BA=5.64,STAT.A=6.5,ExtBa=13.24
26/08/2022,05:52:01,TEMP=25.0,BA=5.64,STAT.B=6.5,ExtBa=13.32
26/08/2022,06:05:06,TEMP=25.5,BA=5.52,STAT.A=6.5,ExtBa=12.98
26/08/2022,06:07:21,TEMP=25.7,BA=5.52,STAT.A=6.5,ExtBa=13.01
26/08/2022,06:09:33,TEMP=25.9,BA=5.52,STAT.A=6.5,ExtBa=13.01
26/08/2022,06:12:04,TEMP=26.0,BA=5.52,STAT.A=6.5,ExtBa=13.04
26/08/2022,06:18:51,TEMP=26.0,BA=5.52,STAT.C=6.5,ExtBa=13.23
26/08/2022,06:37:44,TEMP=27.1,BA=5.48,STAT.A=6.5,ExtBa=12.96
26/08/2022,06:39:57,TEMP=27.5,BA=5.48,STAT.A=6.5,ExtBa=12.98
26/08/2022,06:46:41,TEMP=27.8,BA=5.48,STAT.A=6.5,ExtBa=13.19
26/08/2022,06:59:49,TEMP=28.8,BA=5.56,STAT.A=6.5,ExtBa=13.36
26/08/2022,07:16:06,TEMP=29.4,BA=5.60,STAT.B=6.5,ExtBa=13.41
26/08/2022,07:49:56,TEMP=32.3,BA=5.56,STAT.B=6.5,ExtBa=13.40
26/08/2022,08:01:14,TEMP=32.6,BA=5.48,STAT.D=6.5,ExtBa=12.97
26/08/2022,08:12:27,TEMP=33.2,BA=5.52,STAT.F,ExtBa=13.29
26/08/2022,08:29:59,TEMP=33.1,BA=5.48,STAT.D=6.5,ExtBa=12.97
26/08/2022,08:42:26,TEMP=33.7,BA=5.48,STAT.D=6.5,ExtBa=13.29
26/08/2022,08:57:26,TEMP=34.1,BA=5.48,STAT.D=6.5,ExtBa=13.36
26/08/2022,09:12:28,TEMP=34.9,BA=5.48,STAT.F,ExtBa=13.38
26/08/2022,09:27:26,TEMP=35.2,BA=5.44,STAT.D=6.5,ExtBa=13.31
26/08/2022,09:42:26,TEMP=35.0,BA=5.44,STAT.D=6.5,ExtBa=13.37
26/08/2022,09:57:26,TEMP=35.0,BA=5.44,STAT.D=6.5,ExtBa=13.37
26/08/2022,10:12:28,TEMP=35.2,BA=5.44,STAT.F,ExtBa=13.38
26/08/2022,10:27:26,TEMP=35.3,BA=5.40,STAT.D=6.5,ExtBa=13.32
26/08/2022,10:42:26,TEMP=35.9,BA=5.40,STAT.D=6.5,ExtBa=13.37
26/08/2022,10:57:26,TEMP=36.4,BA=5.40,STAT.D=6.5,ExtBa=13.35
26/08/2022,11:12:28,TEMP=36.8,BA=5.40,STAT.F,ExtBa=13.33
26/08/2022,11:27:26,TEMP=36.3,BA=5.40,STAT.D=6.5,ExtBa=13.33
26/08/2022,11:42:26,TEMP=35.5,BA=5.40,STAT.D=6.5,ExtBa=13.31
26/08/2022,11:57:26,TEMP=35.0,BA=5.40,STAT.D=6.5,ExtBa=13.30
26/08/2022,12:12:28,TEMP=34.8,BA=5.40,STAT.F,ExtBa=13.29
26/08/2022,12:27:26,TEMP=34.9,BA=5.36,STAT.D=6.5,ExtBa=13.32
26/08/2022,12:42:26,TEMP=35.1,BA=5.44,STAT.D=6.5,ExtBa=13.31
26/08/2022,12:57:26,TEMP=35.2,BA=5.44,STAT.D=6.5,ExtBa=13.29
26/08/2022,13:12:27,TEMP=35.5,BA=5.44,STAT.F,ExtBa=13.28
26/08/2022,13:27:26,TEMP=35.4,BA=5.40,STAT.D=6.5,ExtBa=13.31
26/08/2022,13:42:26,TEMP=35.4,BA=5.44,STAT.D=6.5,ExtBa=13.31
26/08/2022,13:57:26,TEMP=34.9,BA=5.44,STAT.D=6.5,ExtBa=13.29
26/08/2022,14:12:27,TEMP=34.3,BA=5.48,STAT.F,ExtBa=13.28
26/08/2022,14:23:56,TEMP=34.0,BA=5.36,STAT.b=6.5
26/08/2022,14:27:28,TEMP=34.0,BA=5.36,STAT.D=6.5,ExtBa=13.18
26/08/2022,14:34:58,TEMP=34.2,BA=5.40,STAT.B=6.5,ExtBa=13.32
26/08/2022,15:08:50,TEMP=33.7,BA=5.48,STAT.B=6.5,ExtBa=13.40
26/08/2022,15:25:07,TEMP=33.7,BA=5.44,STAT.A=6.5,ExtBa=13.23
26/08/2022,15:38:12,TEMP=33.6,BA=5.48,STAT.A=6.5,ExtBa=13.38
26/08/2022,15:49:03,TEMP=33.5,BA=5.40,STAT.A=6.5,ExtBa=13.39
26/08/2022,15:58:11,TEMP=33.6,BA=5.40,STAT.A=6.5,ExtBa=13.36
26/08/2022,16:06:01,TEMP=33.0,BA=5.36,STAT.C=6.5,ExtBa=13.34
26/08/2022,16:17:31,TEMP=32.8,BA=5.40,STAT.b=6.5
26/08/2022,16:18:26,TEMP=32.8,BA=5.40,STAT.A=6.5,ExtBa=13.04
26/08/2022,16:20:33,TEMP=32.8,BA=5.36,STAT.A=6.5,ExtBa=13.04
26/08/2022,16:23:59,TEMP=32.5,BA=5.36,STAT.A=6.5,ExtBa=13.09
26/08/2022,16:28:40,TEMP=32.3,BA=5.36,STAT.A=6.5,ExtBa=13.17
26/08/2022,16:32:51,TEMP=32.1,BA=5.36,STAT.B=6.5,ExtBa=13.10
26/08/2022,16:43:50,TEMP=32.0,BA=5.36,STAT.A=6.5,ExtBa=12.96
26/08/2022,16:48:41,TEMP=31.7,BA=5.36,STAT.A=6.5,ExtBa=13.12
26/08/2022,16:54:24,TEMP=31.5,BA=5.36,STAT.A=6.5,ExtBa=13.19
26/08/2022,16:59:10,TEMP=31.4,BA=5.36,STAT.A=6.5,ExtBa=13.22
26/08/2022,17:03:11,TEMP=31.2,BA=5.40,STAT.A=6.5,ExtBa=13.22
26/08/2022,17:06:38,TEMP=31.0,BA=5.40,STAT.A=6.5,ExtBa=13.16